N8NOE-WX Weather Reports


Display with metric or nautical units.
time (UTC)temp
F
wind
direction
speed
MPH
gust
MPH
rain 1hr
in
rain 24hr
in
rain mn
in
humidity
%
barometer
mb
20190219103336 3 200 0.0 0.0 0.00 0.00 0.00 54 964.0
20190219100334 2 200 0.0 0.0 0.00 0.00 0.00 54 963.0
20190219093225 2 200 0.0 0.0 0.00 0.00 0.00 54 962.0
20190219090328 2 200 0.0 0.0 0.00 0.00 0.00 54 962.0
20190219083208 3 200 0.0 0.0 0.00 0.00 0.00 54 962.0
20190219080226 3 200 0.0 0.0 0.00 0.00 0.00 54 962.0
20190219073211 4 200 0.0 0.0 0.00 0.00 0.00 54 962.0
20190219070042 4 200 0.0 0.0 0.00 0.00 0.00 54 962.0
20190219063154 4 200 0.0 0.0 0.00 0.00 0.00 54 962.0
20190219060202 4 200 0.0 0.0 0.00 0.00 0.00 54 962.0
20190219053303 5 200 0.0 0.0 0.00 0.00 0.00 54 962.0
20190219050330 6 199 0.0 0.0 0.00 0.00 0.00 54 961.0
20190219043216 7 200 0.0 0.0 0.00 0.00 0.00 54 961.0
20190219040103 7 200 0.0 0.0 0.00 0.00 0.00 54 961.0
20190219033151 8 200 0.0 0.0 0.00 0.00 0.00 54 961.0
20190219030241 9 200 0.0 0.0 0.00 0.00 0.00 54 961.0
20190219023210 10 200 0.0 0.0 0.00 0.00 0.00 54 960.0
20190219020252 11 200 0.0 0.0 0.00 0.00 0.00 54 960.0
20190219013251 12 200 0.0 0.0 0.00 0.00 0.00 54 959.0
20190219010201 13 0 0.0 0.0 0.00 0.00 0.00 54 959.0
20190219003120 15 0 0.0 0.0 0.00 0.00 0.00 54 959.0
20190219000121 17 0 0.0 0.0 0.00 0.00 0.00 53 958.0
20190218233040 19 0 0.0 0.0 0.00 0.00 0.00 53 958.0
20190218225931 21 0 0.0 0.0 0.00 0.00 0.00 53 957.0
20190218222854 23 209 0.0 0.0 0.00 0.00 0.00 53 957.0
20190218215754 26 211 0.0 0.0 0.00 0.00 0.00 53 956.0
20190218212734 27 224 0.0 0.0 0.00 0.00 0.00 53 956.0
20190218205726 28 268 0.0 0.0 0.00 0.00 0.00 54 955.0
20190218202650 26 274 0.0 0.0 0.00 0.00 0.00 55 955.0
20190218195615 26 282 0.0 6.0 0.00 0.00 0.00 56 954.0
20190218192653 27 267 0.0 0.0 0.00 0.00 0.00 58 953.0
20190218185723 29 210 0.0 0.0 0.00 0.00 0.00 60 953.0
20190218182645 29 246 0.0 3.0 0.00 0.00 0.00 60 953.0
20190218175541 29 276 0.0 0.0 0.00 0.00 0.00 60 952.0
20190218172659 27 211 0.0 0.0 0.00 0.00 0.00 61 952.0
20190218165546 27 214 0.0 0.0 0.00 0.00 0.00 61 952.0
20190218162538 24 278 0.0 0.0 0.00 0.00 0.00 62 951.0
20190218155631 24 273 0.0 0.0 0.00 0.00 0.00 62 951.0
20190218152559 24 212 0.0 0.0 0.00 0.00 0.00 62 950.0
20190218145604 22 277 0.0 0.0 0.00 0.00 0.00 62 949.0
20190218142719 22 217 0.0 0.0 0.00 0.00 0.00 62 949.0
20190218135712 20 211 0.0 0.0 0.00 0.00 0.00 62 948.0
20190218132833 19 235 0.0 0.0 0.00 0.00 0.00 62 947.0
20190218125948 18 288 0.0 0.0 0.00 0.00 0.00 62 947.0
20190218123039 18 208 0.0 0.0 0.00 0.00 0.00 62 946.0
20190218120143 18 192 0.0 0.0 0.00 0.00 0.00 62 946.0
20190218113151 18 191 0.0 0.0 0.00 0.00 0.00 62 945.0
20190218110135 18 253 0.0 0.0 0.00 0.00 0.00 62 945.0